Location: Gibsondale
(40.9931°N, 80.2478°W)
Time: 23:23:04
(UTC+00:00)

Cosmos 1892 - Pass Details

Date: 29 October 2020
Orbit: 504 x 524 km, 82.5° (Epoch: 29 November)

Event Time Altitude Azimuth Distance (km) Brightness Sun altitude
Rises 23:15:25 0° 357° (N) 2,665 6.3 -11.0°
Reaches altitude 10° 23:17:38 10° 3° (N) 1,772 5.3 -11.4°
Maximum altitude 23:21:25 49° 80° (E) 683 2.9 -12.2°
Drops below altitude 10° 23:25:10 10° 156° (SSE) 1,757 5.2 -12.9°
Sets 23:27:20 0° 161° (SSE) 2,639 6.2 -13.3°
